This is the latest recevied weather packets stored in our database for station/object VK3CG. If no packets are shown the sender has not sent any weather packets the latest 10 day(s).
| Time | Temp. | Humidity | Pressure | Rain* | Wind** | Luminosity | Snow |
|---|---|---|---|---|---|---|---|
| 1788140761 | 64° F | 42% | 772.6 mmHg | 0 in | - | 686 W/m² | - |
| 1788139855 | 62° F | 48% | 772.9 mmHg | 0 in | - | 675 W/m² | - |
| 1788138945 | 58° F | 56% | 773 mmHg | 0 in | - | 663 W/m² | - |
| 1788138038 | 56° F | 66% | 773 mmHg | 0 in | - | 643 W/m² | - |
| 1788137136 | 52° F | 75% | 773.1 mmHg | 0 in | - | 624 W/m² | - |
| 1788136231 | 50° F | 75% | 773.2 mmHg | 0 in | - | 596 W/m² | - |
| 1788135332 | 49° F | 75% | 773.3 mmHg | 0 in | - | 541 W/m² | - |
| 1788134422 | 48° F | 75% | 773.4 mmHg | 0 in | - | 33 W/m² | - |
| 1788133518 | 47° F | 75% | 773.3 mmHg | 0 in | - | 97 W/m² | - |
| 1788132616 | 45° F | 75% | 773.3 mmHg | 0 in | - | 72 W/m² | - |
| 1788131715 | 44° F | 74% | 773.4 mmHg | 0 in | - | 79 W/m² | - |
| 1788130815 | 44° F | 74% | 773.5 mmHg | 0 in | - | 72 W/m² | - |
| 1788129917 | 44° F | 74% | 773.5 mmHg | 0 in | - | 120 W/m² | - |
| 1788129010 | 44° F | 74% | 773.6 mmHg | 0 in | - | 104 W/m² | - |
| 1788128116 | 44° F | 74% | 773.6 mmHg | 0 in | - | 88 W/m² | - |
| 1788127208 | 44° F | 74% | 773.6 mmHg | 0 in | - | 58 W/m² | - |
| 1788126311 | 44° F | 74% | 773.6 mmHg | 0 in | - | 56 W/m² | - |
| 1788125402 | 44° F | 74% | 773.5 mmHg | 0 in | - | 26 W/m² | - |
| 1788124561 | 44° F | 74% | 773.3 mmHg | 0 in | - | 16 W/m² | - |
| 1788123688 | 44° F | 73% | 773.4 mmHg | 0 in | - | 7 W/m² | - |
| 1788122769 | 44° F | 73% | 773.2 mmHg | 0 in | - | 0 W/m² | - |
| 1788121857 | 44° F | 73% | 773.2 mmHg | 0 in | - | 0 W/m² | - |
| 1788120957 | 44° F | 73% | 773.2 mmHg | 0 in | - | 0 W/m² | - |
| 1788120070 | 44° F | 73% | 773.1 mmHg | 0 in | - | 0 W/m² | - |
| 1788119178 | 44° F | 73% | 773.2 mmHg | 0 in | - | 0 W/m² | - |
* Rain latest hour (hover to see other rain measurements)
** Current wind speed in m/s (hover to see current wind gust speed)